Погода в Андре

Россия / Ханты-Мансийский автономный округ - Югра     62°30′56″N   65°52′49″E
темп.,
°C
ветер,
м/с
пор.,
м/с
влажн.,
%
обл.,
%
осадки,
мм/ч
давл.,
гПа
погр.,
м
11 мая, вт
вт1123:00+13ююв31161100 0.0 1024218
02:00+12ююв3116779 0.0 1024261
05:00+11ююв3768100 0.0 1023155
08:00+15ю375487 0.0 1022381
11:00+17з3450100 0.0 10221106
14:00+11сз4892100 2.3 1022343
17:00+12ссз5668100 3.0 10241006
20:00+9ссз47705 0.0 1026790
12 мая, ср
ср1223:00+5ссв22865 0.0 102620
02:00+5юз0084100 0.0 102510
05:00+5ю1184100 0.0 102520
08:00+10з2562100 0.0 1025355
11:00+12з465686 0.0 1024830
14:00+10з2673100 0.0 1023453
17:00+9юз1187100 0.3 102218
20:00+10зюз1192100 0.1 102111
13 мая, чт
чт1323:00+9юз1195100 0.1 102115
02:00+10зсз269798 0.2 1020135
05:00+10сз389729 0.2 1020262
08:00+12ссз5965100 0.0 1022923
11:00+13с574894 0.0 10251174
14:00+15ссз453723 0.0 10251453
17:00+16ссз34345 0.0 10261413
20:00+13ссз11465 0.0 102612
14 мая, пт
пт1423:00+9юв22565 0.0 102521
02:00+8ю27645 0.0 1024128
05:00+8ю2116850 0.0 1022264
08:00+13юз3146586 0.0 1019499
11:00+23з611420 0.0 10161985
14:00+26зсз612335 0.0 10143053
17:00+25зсз71031100 0.0 10142943
20:00+21сз38415 0.0 1014244
15 мая, сб
сб1523:00+17з0162100 0.0 101511
02:00+16ю226686 0.0 101517
05:00+14ююв2278100 0.3 101545
08:00+18зюз247090 0.0 1013551
11:00+21з585437 0.8 10121576
14:00+22зсз5847100 1.1 10112182
17:00+22зсз4945100 1.1 10111761
20:00+18зсз4106779 0.1 1011720